Location: Bosdarros
(43.2167°N, 0.3667°W)
Time: 15:28:20
(UTC+00:00)

USA 215 - Pass Details

Date: 22 April 2021
Orbit: 1101 x 1107 km, 123.0° (Epoch: 07 May)

Event Time Altitude Azimuth Distance (km) Brightness Sun altitude
Exits shadow 23:08:55 35° 261° (W) 1,691 4.2 -33.1°
Drops below altitude 10° 23:13:27 10° 299° (WNW) 2,961 6.0 -33.3°
Sets 23:16:07 0° 307° (NW) 3,922 6.8 -33.4°
